Portada
METAR-TAF:

METAR-TAF

Aeroports :

Porter County Municipal Airport

Valparaiso, Indiana, Estats Units d'Amèrica

latitud: 41-27-11N, longitud: 086-59-53W, altitud: 234 m

Observació

L'informe es va fer fa 1 hora i 2 minuts, a les 12:56 UTC
Vent 6 kt del Sud-Oest
Temperatura -5°C
Humitat 79%
Pressió 1019 hPa
Visibilitat: 8.0 km
Cel clar
calitja

METAR: KVPZ 111256Z AUTO 22006KT 5SM HZ CLR M05/M08 A3009 RMK AO2 SLP199 T10501078

Hora: 07:58 (13:58 UTC)


TAF: manca

Observacions i pronòstics meteorològics de més de 4000 aeroports (METAR i TAF).

Les estacions disponibles són els punts grocs i vermells al mapa.

Posi el ratolí al punt desitjat per veure el nom de l'estació.

Feu clic per veure les observacions i els pronòstics meteorològics.

Per canviar el mapa: feu clic els botons verds amb una creu de color negre per apropar; al botó verd amb un guió per allunyar la imatge; o en les fletxes verdes per a mapes adjacents.


METAR-TAF: